| time (UTC) | temp F | wind direction | speed MPH | gust MPH | rain 1hr in | rain 24hr in | rain mn in | humidity % | barometer mb |
| 20260507063036 | 54 | 165 | 1.0 | 5.0 | 0.00 | 0.00 | 0.00 | 74 | 1021.3 |
| 20260507061535 | 56 | 290 | 2.0 | 5.0 | 0.00 | 0.00 | 0.00 | 72 | 1021.4 |
| 20260507054535 | 57 | 348 | 2.0 | 7.0 | 0.00 | 0.00 | 0.00 | 70 | 1021.6 |
| 20260507053036 | 57 | 342 | 3.0 | 10.0 | 0.00 | 0.00 | 0.00 | 70 | 1021.6 |
| 20260507051535 | 57 | 343 | 1.0 | 6.0 | 0.00 | 0.00 | 0.00 | 70 | 1021.7 |
| 20260507050036 | 57 | 43 | 2.0 | 7.0 | 0.00 | 0.00 | 0.00 | 70 | 1021.7 |
| 20260507044535 | 56 | 57 | 3.0 | 11.0 | 0.00 | 0.00 | 0.00 | 68 | 1021.4 |
| 20260507041536 | 57 | 72 | 3.0 | 7.0 | 0.00 | 0.00 | 0.00 | 65 | 1021.3 |
| 20260507034534 | 59 | 110 | 3.0 | 12.0 | 0.00 | 0.00 | 0.00 | 62 | 1021.3 |
| 20260507033108 | 60 | 333 | 3.0 | 12.0 | 0.00 | 0.00 | 0.00 | 61 | 1021.2 |
| 20260507030038 | 61 | 36 | 2.0 | 8.0 | 0.00 | 0.00 | 0.00 | 59 | 1021.3 |
| 20260507024535 | 62 | 328 | 4.0 | 15.0 | 0.00 | 0.00 | 0.00 | 57 | 1021.3 |
| 20260507021537 | 64 | 248 | 6.0 | 21.0 | 0.00 | 0.00 | 0.00 | 54 | 1021.3 |
| 20260507020110 | 65 | 285 | 7.0 | 14.0 | 0.00 | 0.00 | 0.00 | 52 | 1021.2 |
| 20260507014533 | 67 | 265 | 6.0 | 18.0 | 0.00 | 0.00 | 0.00 | 50 | 1021.1 |
| 20260507013033 | 68 | 254 | 5.0 | 14.0 | 0.00 | 0.00 | 0.00 | 49 | 1021.0 |
| 20260507011535 | 68 | 280 | 5.0 | 18.0 | 0.00 | 0.00 | 0.00 | 47 | 1021.1 |
| 20260507004532 | 68 | 298 | 5.0 | 13.0 | 0.00 | 0.00 | 0.00 | 44 | 1020.8 |
| 20260507003033 | 70 | 273 | 6.0 | 16.0 | 0.00 | 0.00 | 0.00 | 43 | 1020.8 |
| 20260507001536 | 71 | 264 | 5.0 | 14.0 | 0.00 | 0.00 | 0.00 | 42 | 1020.7 |
| 20260507000036 | 71 | 268 | 7.0 | 22.0 | 0.00 | 0.00 | 0.00 | 41 | 1020.5 |
| 20260506234537 | 71 | 273 | 6.0 | 15.0 | 0.00 | 0.00 | 0.00 | 40 | 1020.5 |
| 20260506233036 | 72 | 275 | 7.0 | 17.0 | 0.00 | 0.00 | 0.00 | 39 | 1020.4 |
| 20260506231536 | 72 | 272 | 6.0 | 20.0 | 0.00 | 0.00 | 0.00 | 39 | 1020.4 |
| 20260506230037 | 73 | 284 | 7.0 | 19.0 | 0.00 | 0.00 | 0.00 | 39 | 1020.3 |
| 20260506221611 | 73 | 267 | 8.0 | 20.0 | 0.00 | 0.00 | 0.00 | 42 | 1020.6 |
| 20260506220108 | 73 | 284 | 5.0 | 18.0 | 0.00 | 0.00 | 0.00 | 42 | 1020.5 |
| 20260506214537 | 73 | 301 | 6.0 | 19.0 | 0.00 | 0.00 | 0.00 | 42 | 1020.4 |
| 20260506213036 | 73 | 298 | 5.0 | 18.0 | 0.00 | 0.00 | 0.00 | 43 | 1020.4 |
| 20260506211534 | 72 | 271 | 5.0 | 18.0 | 0.00 | 0.00 | 0.00 | 44 | 1020.4 |
| 20260506210145 | 72 | 272 | 7.0 | 21.0 | 0.00 | 0.00 | 0.00 | 45 | 1020.4 |
| 20260506203036 | 72 | 281 | 4.0 | 9.0 | 0.00 | 0.00 | 0.00 | 46 | 1020.6 |
| 20260506200034 | 72 | 309 | 7.0 | 15.0 | 0.00 | 0.00 | 0.00 | 45 | 1020.6 |
| 20260506194537 | 72 | 251 | 6.0 | 17.0 | 0.00 | 0.00 | 0.00 | 47 | 1020.6 |
| 20260506193035 | 71 | 253 | 8.0 | 21.0 | 0.00 | 0.00 | 0.00 | 48 | 1020.8 |
| 20260506191536 | 72 | 277 | 6.0 | 20.0 | 0.00 | 0.00 | 0.00 | 50 | 1020.8 |
| 20260506184536 | 71 | 336 | 6.0 | 14.0 | 0.00 | 0.00 | 0.00 | 49 | 1020.6 |
| 20260506183034 | 71 | 354 | 3.0 | 10.0 | 0.00 | 0.00 | 0.00 | 51 | 1020.6 |
| 20260506181608 | 69 | 270 | 6.0 | 14.0 | 0.00 | 0.00 | 0.00 | 54 | 1020.8 |
| 20260506180036 | 68 | 309 | 7.0 | 17.0 | 0.00 | 0.00 | 0.00 | 54 | 1020.7 |
| 20260506174534 | 68 | 324 | 10.0 | 19.0 | 0.00 | 0.00 | 0.00 | 52 | 1020.5 |
| 20260506170143 | 69 | 43 | 4.0 | 9.0 | 0.00 | 0.00 | 0.00 | 57 | 1020.4 |
| 20260506164651 | 64 | 315 | 7.0 | 17.0 | 0.00 | 0.00 | 0.00 | 62 | 1020.7 |
| 20260506161533 | 65 | 264 | 5.0 | 18.0 | 0.00 | 0.00 | 0.00 | 67 | 1020.9 |
| 20260506160118 | 63 | 227 | 3.0 | 10.0 | 0.00 | 0.00 | 0.00 | 69 | 1020.7 |
| 20260506154535 | 62 | 35 | 1.0 | 6.0 | 0.00 | 0.00 | 0.00 | 74 | 1020.9 |
| 20260506151535 | 58 | 139 | 1.0 | 4.0 | 0.00 | 0.00 | 0.00 | 81 | 1020.7 |
| 20260506150033 | 56 | 113 | 1.0 | 4.0 | 0.00 | 0.00 | 0.00 | 93 | 1020.9 |
| 20260506143035 | 52 | 157 | 0.0 | 1.0 | 0.00 | 0.00 | 0.00 | 98 | 1020.8 |
| 20260506141608 | 49 | 194 | 0.0 | 3.0 | 0.00 | 0.00 | 0.00 | 98 | 1020.6 |
| 20260506140037 | 46 | 161 | 2.0 | 3.0 | 0.00 | 0.00 | 0.00 | 97 | 1020.4 |
| 20260506134537 | 44 | 203 | 2.0 | 4.0 | 0.00 | 0.00 | 0.00 | 97 | 1020.2 |
| 20260506131537 | 42 | 175 | 3.0 | 4.0 | 0.00 | 0.00 | 0.00 | 97 | 1019.8 |
| 20260506130033 | 41 | 165 | 1.0 | 3.0 | 0.00 | 0.00 | 0.00 | 97 | 1019.7 |
| 20260506124537 | 42 | 169 | 2.0 | 4.0 | 0.00 | 0.00 | 0.00 | 97 | 1019.5 |
| 20260506123030 | 42 | 180 | 3.0 | 5.0 | 0.00 | 0.00 | 0.00 | 96 | 1019.4 |
| 20260506114534 | 43 | 159 | 2.0 | 3.0 | 0.00 | 0.00 | 0.00 | 96 | 1019.1 |
| 20260506113034 | 43 | 160 | 3.0 | 5.0 | 0.00 | 0.00 | 0.00 | 96 | 1019.0 |
| 20260506111535 | 44 | 179 | 3.0 | 4.0 | 0.00 | 0.00 | 0.00 | 96 | 1019.0 |
| 20260506110034 | 44 | 162 | 3.0 | 5.0 | 0.00 | 0.00 | 0.00 | 96 | 1018.8 |
| 20260506103036 | 44 | 153 | 3.0 | 5.0 | 0.00 | 0.00 | 0.00 | 96 | 1018.4 |
| 20260506101534 | 44 | 173 | 4.0 | 5.0 | 0.00 | 0.00 | 0.00 | 96 | 1018.4 |
| 20260506100055 | 44 | 160 | 3.0 | 4.0 | 0.00 | 0.00 | 0.00 | 96 | 1018.4 |
| 20260506094535 | 44 | 152 | 3.0 | 4.0 | 0.00 | 0.00 | 0.00 | 95 | 1018.3 |
| 20260506093036 | 44 | 169 | 3.0 | 4.0 | 0.00 | 0.00 | 0.00 | 95 | 1018.3 |
| 20260506090107 | 45 | 165 | 3.0 | 4.0 | 0.00 | 0.00 | 0.00 | 95 | 1018.2 |
| 20260506084536 | 45 | 157 | 3.0 | 4.0 | 0.00 | 0.00 | 0.00 | 95 | 1018.1 |
| 20260506083035 | 46 | 160 | 3.0 | 4.0 | 0.00 | 0.00 | 0.00 | 95 | 1018.0 |
| 20260506081535 | 46 | 169 | 3.0 | 4.0 | 0.00 | 0.00 | 0.00 | 95 | 1018.0 |
| 20260506073038 | 47 | 153 | 2.0 | 4.0 | 0.00 | 0.00 | 0.00 | 94 | 1017.7 |
| 20260506071536 | 47 | 160 | 2.0 | 3.0 | 0.00 | 0.00 | 0.00 | 93 | 1017.6 |